Regional Weather Roundup
Issued by NWS

Home | Current Version | Previous Version | Text Only | Print | Product List | Glossary On
Versions: 1 2 3 4 5 6 7 8 9 10 11 12 13 14 15 16 17 18 19 20 21 22 23 24 25 26 27 28 29 30 31 32 33 34 35 36 37 38 39 40 41 42 43 44 45 46 47 48 49 50
000
ASUS46 KSEW 222210
RWRWA

WASHINGTON REGIONAL WEATHER ROUNDUP
NATIONAL WEATHER SERVICE SEATTLE WA
300 PM PDT MON SEP 22 2014

NOTE:"FAIR" INDICATES FEW OR NO CLOUDS BELOW 12,000 FEET WITH NO
SIGNIFICANT WEATHER AND/OR OBSTRUCTIONS TO VISIBILITY.

WAZ505-507>509-222300-
SEATTLE, TACOMA, EVERETT, AND VICINITY

CITY           SKY/WX    TMP DP  RH WIND       PRES   REMARKS
EVERETT        CLOUDY    67  55  65 S7        29.98F
BOEING FIELD   CLOUDY    72  53  51 SW7       29.96F
RENTON         CLOUDY    71  56  58 SE5       29.96F
SEATAC AIRPORT PTSUNNY   70  55  59 W8        29.98F
JBLM-MCCHORD   PTSUNNY   71  55  56 W9        29.97F
PUYALLUP       NOT AVBL
JBLM-FT LEWIS  PTSUNNY   71  54  54 W8        29.96F
TACOMA NARROWS PTSUNNY   70  55  59 MISG      29.97F
$$

WAZ001-503-506-510-514-515-222300-
NORTH INTERIOR

CITY           SKY/WX    TMP DP  RH WIND       PRES   REMARKS
BELLINGHAM     PTSUNNY   68  55  63 VRB5      29.97S
FRIDAY HARBOR    N/A    N/A N/A N/A MISG      29.98S
EASTSOUND      MOSUNNY   66  57  72 S13       29.94S
PORT ANGELES     N/A     68  56  65 E6        29.96S
NAS WHIDBEY    PTSUNNY   72  56  57 SE10      29.97S
BURLINGTON     CLOUDY    72  57  60 S12       29.98S
$$

WAZ020-022-039-040-504-511-512-222300-
SOUTHWEST INTERIOR

CITY           SKY/WX    TMP DP  RH WIND       PRES   REMARKS
SHELTON        CLOUDY    67  56  67 W13       29.95F
OLYMPIA        CLOUDY    69  53  56 S6        29.97F
CHEHALIS       FAIR      72  57  60 CALM      29.98S
KELSO          CLOUDY    72  52  49 CALM      30.01S
VANCOUVER      CLOUDY    68  53  58 S3        29.97F
SCAPPOOSE, OR  PTSUNNY   70  53  54 E8        29.97F
PORTLAND, OR   CLOUDY    68  55  63 E8        29.98F
$$

WAZ021-516-517-222300-
WASHINGTON COAST

CITY           SKY/WX    TMP DP  RH WIND       PRES   REMARKS
FORKS          CLOUDY    63  59  87 S8G18     29.96S
HOQUIAM        CLOUDY    66  59  78 SW9       29.98F
ASTORIA, OR    CLOUDY    65  55  70 SW9       29.97F
$$

WAZ019-023-024-040-518-519-222300-
CASCADE MOUNTAINS AND COLUMBIA GORGE

CITY           SKY/WX    TMP DP  RH WIND       PRES   REMARKS
STAMPEDE PASS  NOT AVBL
TROUTDALE, OR  CLOUDY    69  54  58 NE6       29.97F
THE DALLES, OR CLOUDY    79  52  38 NW15G25   29.87F
$$

WAZ026-027-041>044-520-521-222300-
EAST SLOPES

CITY           SKY/WX    TMP DP  RH WIND       PRES   REMARKS
OMAK           CLOUDY    76  48  37 N8        29.87S
WENATCHEE      MOSUNNY   80  53  39 NW5       29.86F
ELLENSBURG     MOSUNNY   84  54  35 W10       29.88F HAZE
YAKIMA         MOSUNNY   85  48  27 S7        29.86F
$$

WAZ028-034-035-222300-
COLUMBIA BASIN

CITY           SKY/WX    TMP DP  RH WIND       PRES   REMARKS
EPHRATA        PTSUNNY   83  49  30 VRB7      29.86F
MOSES LAKE     CLOUDY    83  50  31 SE8       29.87F
PASCO          CLOUDY    84  53  34 W3        29.85F
HERMISTON, OR  PTSUNNY   86  50  28 NW6       29.85F
$$

WAZ036>038-222300-
NORTHEAST WASHINGTON

CITY           SKY/WX    TMP DP  RH WIND       PRES   REMARKS
SPOKANE GEIGER PTSUNNY   83  45  26 SW9G16    29.91F
SPOKANE FELTS  SUNNY     87  44  22 SW8       29.90F
FAIRCHILD AFB  MOSUNNY   83  46  27 S12       29.93F
COEURDALENE,ID SUNNY     82  48  30 CALM      29.91F
DEER PARK      MOSUNNY   82  46  28 VRB6      29.91F
$$

WAZ029>033-222300-
SOUTHEAST WASHINGTON

CITY           SKY/WX    TMP DP  RH WIND       PRES   REMARKS
PULLMAN        MOSUNNY   84  46  26 W10G20    29.97F
LEWISTON, ID   CLOUDY    81  49  32 NE3       29.91F
WALLA WALLA    CLOUDY    82  47  29 W12       29.90F
PENDLETON, OR  CLOUDY    80  46  30 NW6       29.90F
$$


USA.gov is the U.S. government's official web portal to all federal, state and local government web resources and services.